User: anonymous   Login
Location: Unspecified
(0.0000°N, 0.0000°E)
Time: 23:22:00
(UTC+00:00)
Language:

DOVE 4 - Orbit

View from above orbital plane
View from above orbital plane
View from above satellite
View from above satellite

Ground track
Ground track

The orbit data is extracted from the following two-line orbital elements,

1 39430U 13066Q   19320.88433687  .00000168  00000-0  38982-4 0  9996
2 39430  97.7650 267.6186 0151794 137.1337 224.1838 14.59308581318658
Epoch (UTC): 16 November 2019 21:13:26
Eccentricity: 0.0151794
inclination: 97.7650°
perigee height: 588 km
apogee height: 803 km
right ascension of ascending node: 267.6186°
argument of perigee: 137.1337°
revolutions per day: 14.59308581
mean anomaly at epoch: 224.1838°
orbit number at epoch: 31865

The dashed part of the orbit path shows where the satellite is in the earth's shadow,  

DLR